TimePDT,TemperatureF,Dew PointF,Humidity,Sea Level PressureIn,VisibilityMPH,Wind Direction,Wind SpeedMPH,Gust SpeedMPH,PrecipitationIn,Events,Conditions,WindDirDegrees,DateUTC
12:53 AM,32.0,25.0,75,30.20,10.0,NW,4.6,-,N/A,,Clear,320,2013-04-09 07:53:00
1:53 AM,30.9,24.1,76,30.21,10.0,Calm,Calm,-,N/A,,Clear,0,2013-04-09 08:53:00
2:53 AM,33.1,25.0,72,30.20,10.0,North,4.6,-,N/A,,Clear,10,2013-04-09 09:53:00
3:53 AM,27.0,21.9,81,30.22,10.0,ENE,4.6,-,N/A,,Clear,60,2013-04-09 10:53:00
4:53 AM,26.1,21.9,84,30.24,10.0,Calm,Calm,-,N/A,,Clear,0,2013-04-09 11:53:00
5:53 AM,23.0,19.9,88,30.25,10.0,Calm,Calm,-,N/A,,Clear,0,2013-04-09 12:53:00
6:53 AM,24.1,21.0,88,30.27,10.0,North,3.5,-,N/A,,Clear,350,2013-04-09 13:53:00
7:53 AM,32.0,26.1,79,30.27,10.0,ENE,3.5,-,N/A,,Partly Cloudy,70,2013-04-09 14:53:00
8:53 AM,39.0,28.0,65,30.28,10.0,NE,3.5,-,N/A,,Partly Cloudy,40,2013-04-09 15:53:00
9:53 AM,43.0,26.1,51,30.26,10.0,Variable,4.6,-,N/A,,Partly Cloudy,0,2013-04-09 16:53:00
10:53 AM,45.0,28.9,53,30.27,10.0,NW,6.9,-,N/A,,Partly Cloudy,320,2013-04-09 17:53:00
11:53 AM,48.0,30.0,50,30.27,10.0,NW,9.2,-,N/A,,Scattered Clouds,320,2013-04-09 18:53:00
12:53 PM,50.0,28.0,43,30.26,10.0,Variable,6.9,-,N/A,,Scattered Clouds,0,2013-04-09 19:53:00
1:53 PM,53.1,28.9,40,30.24,10.0,NNW,9.2,-,N/A,,Partly Cloudy,330,2013-04-09 20:53:00
2:53 PM,55.0,26.1,33,30.23,10.0,NNW,10.4,17.3,N/A,,Partly Cloudy,330,2013-04-09 21:53:00
3:53 PM,57.0,21.9,26,30.22,10.0,NW,10.4,-,N/A,,Partly Cloudy,310,2013-04-09 22:53:00
4:53 PM,57.0,24.1,28,30.22,10.0,NW,16.1,-,N/A,,Overcast,320,2013-04-09 23:53:00
5:53 PM,57.0,35.1,44,30.24,10.0,NW,18.4,-,N/A,,Scattered Clouds,320,2013-04-10 00:53:00
6:53 PM,55.0,37.0,51,30.24,10.0,NW,15.0,-,N/A,,Partly Cloudy,320,2013-04-10 01:53:00
7:53 PM,52.0,37.0,57,30.25,10.0,NW,11.5,-,N/A,,Clear,320,2013-04-10 02:53:00
8:53 PM,50.0,37.9,63,30.25,10.0,NNW,15.0,-,N/A,,Clear,330,2013-04-10 03:53:00
9:53 PM,46.9,39.0,74,30.26,10.0,NNW,10.4,-,N/A,,Clear,340,2013-04-10 04:53:00
10:53 PM,46.0,37.9,73,30.26,10.0,Calm,Calm,-,N/A,,Clear,0,2013-04-10 05:53:00
11:53 PM,46.0,37.0,71,30.25,10.0,NNW,4.6,-,N/A,,Clear,330,2013-04-10 06:53:00